Find Starlink 3859

NORAD ID: 52470 Int'l Des: 2022-049 Owner: SPXS Country: US Constellation: starlink operational
LEOCIRCULAR

現在のビュー

3D地球を読み込み中...

About Starlink 3859

Starlink 3859 (NORAD 52470) is a starlink constellation satellite (v1.5) launched May 6, 2022 by SPXS of US. It operates in LEO, CIRCULAR orbit with a mass of 297.00 kg.

Starlink 3859について

説明を読み込み中...

次回通過

Passes for default location (London). Set your location on the main map for personalized predictions.

高度履歴

Loading altitude history...

軌道要素

1 52470U 22049V 26170.12271720 .00000368 00000-0 41247-4 0 9992
2 52470 53.1594 323.6574 0001585 83.6242 276.4930 15.08838621227566
Epoch: Jun 19, 2026 • Age: 7 hours

現在のステータス

高度 540.2 km
速度 7.60 km/s
衛星直下点 24.58°N, 65.36°E
打ち上げ日 May 6, 2022
運用期間 4.1 years
タイプ internet

技術仕様

分類 Payload
質量 297.00 kg
乾燥質量 220.00 kg
総質量 297.00 kg
長さ 0.20 m
直径 2.80 m
スパン 9.00 m
形状 Box + pan
製造者 SPXS
バスタイプ Starlink
フェーズステータス In Orbit
所有者/国 SPXS/US

Most Searched